This demonstration page uses our WeatherBlox Daily Observations layout. Learn more.

39.29038, -76.61219

Hourly Observations for March 18, 2019

Temp ( °F °C ) Dew Point ( °F °C ) Humidity (%) Winds ( mph kmh ) Pressure ( in mb ) Visibility ( mi km ) Precip ( " mm )
12:54 am 00:54 undefined 44 6.7 17 -8.3 34 34 undefined N/A 30.24 1024 N/A 0 0
1:54 am 01:54 undefined 44 6.7 16 -8.9 32 32 undefined N/A 30.22 1023 N/A 0 0
2:54 am 02:54 undefined 43 6.1 19 -7.2 38 38 undefined N/A 30.21 1023 N/A 0 0
3:54 am 03:54 undefined 42 5.6 20 -6.7 41 41 undefined N/A 30.2 1023 N/A 0 0
4:54 am 04:54 undefined 41 5 20 -6.7 43 43 undefined N/A 30.2 1023 N/A 0 0
5:54 am 05:54 undefined 42 5.6 23 -5 47 47 undefined N/A 30.23 1024 N/A 0 0
6:54 am 06:54 undefined 39 3.9 19 -7.2 45 45 undefined N/A 30.23 1024 N/A 0 0
7:54 am 07:54 undefined 39 3.9 20 -6.7 46 46 undefined N/A 30.26 1025 N/A 0 0
8:54 am 08:54 undefined 39 3.9 20 -6.7 46 46 undefined N/A 30.29 1026 N/A 0 0
9:54 am 09:54 undefined 41 5 21 -6.1 45 45 undefined N/A 30.32 1027 N/A 0 0
10:54 am 10:54 undefined 44 6.7 25 -3.9 47 47 undefined N/A 30.35 1028 N/A 0 0
11:54 am 11:54 undefined 44 6.7 26 -3.3 49 49 undefined N/A 30.34 1027 N/A 0 0
12:54 pm 12:54 undefined 47 8.3 29 -1.7 50 50 undefined N/A 30.32 1027 N/A 0 0
1:54 pm 13:54 undefined 47 8.3 27 -2.8 46 46 undefined N/A 30.3 1026 N/A 0 0
2:54 pm 14:54 undefined 47 8.3 24 -4.4 41 41 undefined N/A 30.27 1025 N/A 0 0
3:54 pm 15:54 undefined 49 9.4 24 -4.4 38 38 undefined N/A 30.27 1025 N/A 0 0
4:54 pm 16:54 undefined 47 8.3 25 -3.9 42 42 undefined N/A 30.24 1024 N/A 0 0
5:54 pm 17:54 undefined 46 7.8 24 -4.4 42 42 undefined N/A 30.25 1025 N/A 0 0
6:54 pm 18:54 undefined 45 7.2 25 -3.9 46 46 undefined N/A 30.29 1026 N/A 0 0
7:54 pm 19:54 undefined 45 7.2 24 -4.4 44 44 undefined N/A 30.31 1027 N/A 0 0
8:54 pm 20:54 undefined 45 7.2 25 -3.9 46 46 undefined N/A 30.34 1027 N/A 0 0
9:54 pm 21:54 undefined 44 6.7 26 -3.3 49 49 undefined N/A 30.35 1028 N/A 0 0
10:54 pm 22:54 undefined 42 5.6 27 -2.8 55 55 undefined N/A 30.37 1028 N/A 0 0
11:54 pm 23:54 undefined 42 5.6 27 -2.8 55 55 undefined N/A 30.38 1029 N/A 0 0

Powered by AerisWeather